This is the latest recevied weather packets stored in our database for station/object DC4XK-10. If no packets are shown the sender has not sent any weather packets the latest 1 day(s).
| Time | Temp. | Humidity | Pressure | Rain* | Wind** | Luminosity | Snow |
|---|---|---|---|---|---|---|---|
| 1778020131 | 6.11° C | 95% | 1008.8 hPa | 0 mm | 0 m/s | - | - |
| 1778019531 | 6.67° C | 95% | 1008.8 hPa | 0 mm | 0 m/s | - | - |
| 1778018931 | 6.67° C | 95% | 1008.8 hPa | 0 mm | 0 m/s | - | - |
| 1778018331 | 6.67° C | 94% | 1008.9 hPa | 0 mm | 0 m/s | - | - |
| 1778017730 | 6.67° C | 93% | 1008.7 hPa | 0 mm | 0 m/s | - | - |
| 1778017130 | 7.22° C | 92% | 1008.9 hPa | 0 mm | 0 m/s | - | - |
| 1778016531 | 7.78° C | 92% | 1008.9 hPa | 0 mm | 0 m/s | - | - |
| 1778015931 | 7.78° C | 91% | 1008.9 hPa | 0 mm | 0 m/s | - | - |
| 1778015330 | 7.78° C | 90% | 1008.7 hPa | 0 mm | 0 m/s | - | - |
| 1778014731 | 8.33° C | 88% | 1008.9 hPa | 0 mm | 0 m/s | - | - |
| 1778014131 | 8.33° C | 88% | 1008.9 hPa | 0 mm | 0 m/s | - | - |
| 1778013530 | 8.33° C | 87% | 1009.2 hPa | 0 mm | 0 m/s | - | - |
| 1778012931 | 8.89° C | 86% | 1008.9 hPa | 0 mm | 0 m/s | - | - |
| 1778012330 | 8.89° C | 85% | 1009 hPa | 0 mm | 0 m/s | - | - |
| 1778011731 | 9.44° C | 85% | 1009.1 hPa | 0 mm | 0 m/s | - | - |
| 1778011133 | 8.89° C | 85% | 1008.9 hPa | 0 mm | 0 m/s | - | - |
| 1778010530 | 9.44° C | 84% | 1009 hPa | 0 mm | 0 m/s | - | - |
| 1778009931 | 9.44° C | 81% | 1008.9 hPa | 0 mm | 0 m/s | - | - |
| 1778009333 | 10° C | 79% | 1009.2 hPa | 0 mm | 0 m/s | - | - |
| 1778008730 | 10.56° C | 77% | 1008.9 hPa | 0 mm | 0 m/s | - | - |
| 1778008131 | 11.11° C | 75% | 1008.8 hPa | 0 mm | 0 m/s | - | - |
| 1778007533 | 11.67° C | 72% | 1008.7 hPa | 0 mm | 0 m/s | - | - |
| 1778006931 | 12.22° C | 67% | 1008.8 hPa | 0 mm | 0 m/s | - | - |
| 1778006331 | 12.78° C | 67% | 1008.7 hPa | 0 mm | 0.45 m/s, 279° | - | - |
| 1778005730 | 13.33° C | 64% | 1008.7 hPa | 0 mm | 0 m/s | - | - |
* Rain latest hour (hover to see other rain measurements)
** Current wind speed in m/s (hover to see current wind gust speed)